Location: *
(40.4000°N, 15.1200°E)
Time: 07:01:17
(UTC+00:00)

Cosmos 1821 Rocket - Pass Details

Date: 09 April 2020
Orbit: 945 x 1004 km, 82.9° (Epoch: 25 May)

Event Time Altitude Azimuth Distance (km) Brightness Sun altitude
Rises 20:18:35 0° 356° (N) 3,731 7.7 -28.9°
Reaches altitude 10° 20:21:10 10° 360° (N) 2,782 6.9 -29.2°
Enters shadow 20:26:42 57° 47° (NE) 1,176 4.3 -30.0°
